Regional Weather Roundup
Issued by NWS Wilmington, NC

Home | Current Version | Previous Version | Text Only | Print | Product List | Glossary On
Versions: 1 2 3 4 5 6 7 8 9 10 11 12 13 14 15 16 17 18 19 20 21 22 23 24 25 26 27 28 29 30 31 32 33 34 35 36 37 38 39 40 41 42 43 44 45 46 47 48 49 50
000
ASUS42 KILM 312213
RWRILM
RWRILM
REGIONAL HOURLY WEATHER ROUNDUP
NATIONAL WEATHER SERVICE WILMINGTON NC
600 PM EDT FRI JUL 31 2015

NOTE: "FAIR" INDICATES FEW OR NO CLOUDS BELOW 12,000 FEET WITH NO
SIGNIFICANT WEATHER AND/OR OBSTRUCTIONS TO VISIBILITY.

...............WFO WILMINGTON COUNTY WARNING AREA...............

......COASTAL NC AND SC COUNTIES......

CITY           SKY/WX    TMP DP  RH WIND       PRES   REMARKS
WILMINGTON     TSTM      78  74  87 S15       29.88R
N MYRTLE BEACH PTSUNNY   85  75  72 S10       29.87F HX  93
MYRTLE BEACH   MOSUNNY   88  75  66 S17       29.90R HX  97

......INLAND NC AND SC COUNTIES.......

CITY           SKY/WX    TMP DP  RH WIND       PRES   REMARKS
LUMBERTON      MOSUNNY   95  67  39 NE3       29.85F HX  99
ELIZABETHTOWN  PTSUNNY   93  67  41 CALM      29.85F HX  96
WHITEVILLE     PTSUNNY   82  71  71 S6        29.87S
FLORENCE       SUNNY     95  69  42 N7        29.86F HX 100
DARLINGTON     PTSUNNY   93  63  36 SE5       29.87S HX  94

....................REST OF NORTH CAROLINA......................

.........EASTERN NC.........

CITY           SKY/WX    TMP DP  RH WIND       PRES   REMARKS
CAPE HATTERAS  MOSUNNY   84  74  71 N8        29.88R HX  91
JACKSONVILLE   PTSUNNY   90  70  51 CALM      29.87S HX  95
MOREHEAD CITY  PTSUNNY   83  78  85 E9        29.89R HX  93
KENANSVILLE    SUNNY    N/A N/A N/A CALM      29.87F
NEW BERN       MOSUNNY   88  74  63 E5        29.88S HX  96
ELIZABETH CITY MOSUNNY   85  67  54 E8        29.88S

.........CENTRAL NC.........

CITY           SKY/WX    TMP DP  RH WIND       PRES   REMARKS
RALEIGH DURHAM MOSUNNY   88  64  44 VRB6      29.90S
ROCKY MOUNT    SUNNY     92  63  38 NW9       29.87F HX  93
ROANOKE RAPIDS NOT AVBL
FAYETTEVILLE   MOSUNNY   90  66  45 NE5       29.86S HX  92
HOFFMAN        MOSUNNY   95  61  31 N7        29.86S HX  95

.........WESTERN NC.........

CITY           SKY/WX    TMP DP  RH WIND       PRES   REMARKS
CHARLOTTE      MOSUNNY   91  51  25 N6        29.92F
GREENSBORO     MOSUNNY   87  56  34 CALM      29.93F
HICKORY        NOT AVBL
BOONE          NOT AVBL
ASHEVILLE      NOT AVBL

.....................REST OF SOUTH CAROLINA.....................

.........EASTERN SC.........

CITY           SKY/WX    TMP DP  RH WIND       PRES   REMARKS
CHARLESTON     CLOUDY    86  76  71 SW9       29.89S HX  96
BEAUFORT MCAS  CLOUDY    79  73  82 W5        29.92R
HILTON HEAD    PTSUNNY   82  77  83 SW5       29.92S HX  91

.........CENTRAL SC.........

CITY           SKY/WX    TMP DP  RH WIND       PRES   REMARKS
COLUMBIA       MOSUNNY   95  64  35 CALM      29.87F HX  97
ORANGEBURG     PTSUNNY   83  71  67 S17G26    29.91R
SUMTER SHAW    SUNNY     94  67  40 W6        29.85F HX  97

.........WESTERN SC.........

CITY           SKY/WX    TMP DP  RH WIND       PRES   REMARKS
GREENVILLE     NOT AVBL
ROCK HILL      SUNNY     90  61  37 CALM      29.92F HX  90
ANDERSON       MOSUNNY   90  65  43 SE5       29.92S HX  92
CLEMSON        NOT AVBL
GREENWOOD      PTSUNNY   94  63  35 NE6       29.92S HX  95


...................COASTAL AND OFFSHORE REPORTS..................

................LOCAL PIERS AND NC RESERVE................


STATION/POSITION TIME  SKY/WX   TEMP    WIND        PRES    VSBY
                                AIR SEA DIR/SP/G
                 (UTC)          (F)     (DEG/KT/KT) (MB)    (MI)
JOHNY MRCER PIER 2100            85 87  160/ 11/ 14 1011.0F
NC RESRV MASNBRO NOT AVBL
OCEAN CREST PIER NOT AVBL
SPRINGMAID  PIER 2100            85 87  150/  9/ 10 1011.6F


................COASTAL AND OFFSHORE BUOYS................


STATION/POSITION TIME  SKY/WX   TEMP    WIND        PRES    VSBY
                                AIR SEA DIR/SP/G
                 (UTC)          (F)     (DEG/KT/KT) (MB)    (MI)
DIMNDSHOAL 41025 2150            82 86  360/  8/ 10 1012.0R
WVE H/P(F/S)=  4/ 8 WND WVE H/P(F/S)=  2/ 4 SWL H/P/D(F/S/D)=  3/170/ 8

CAPE LOOKOUT     2200            80      70/ 15/ 17 1012.2R
ONSLOW BAY 41036 NOT AVBL
5 WRITEBCH 41038 2108            84 84  200/  8/ 12 1011.5F
MASONBORO  41110 2119               84                N/A
WVE H/P(F/S)=  2/ 8 WND WVE H/P(F/S)=  2/ 8

WILM HARBR 41108 2111               84                N/A
WVE H/P(F/S)=  3/ 6 WND WVE H/P(F/S)=  3/ 6

27WRITEBCH 41037 2100            81 84  230/  8/ 10   N/A
FRYING PAN 41013 2150            84 85  210/ 19/ 23 1012.4F
WVE H/P(F/S)=  3/ 6 WND WVE H/P(F/S)=  3/ 6 SWL H/P/D(F/S/D)=  2/130/ 7

SUNST NRSH 41024 2108            83     190/ 10/ 12 1011.6F
CAPRS NRSH 41029 2108            82     220/ 14/ 17 1012.8R
EDISTO     41004 2150            83 85  210/ 12/ 16 1012.5R
WVE H/P(F/S)=  3/ 7 WND WVE H/P(F/S)=  2/ 4 SWL H/P/D(F/S/D)=  2/ 7



..........OFFSHORE BUOYS BEYOND 100 NM OFFSHORE...........
.....IN A TRIANGLE---HAT TO BERMUDA TO BAHAMAS TO HAT.....


STATION/POSITION TIME  SKY/WX   TEMP    WIND        PRES    VSBY
                                AIR SEA DIR/SP/G
                 (UTC)          (F)     (DEG/KT/KT) (MB)    (MI)
150E HAT   41001 2100            82 83  230/ 23/ 29 1010.5S
W BERMUDA  41048 2150            83 81  200/ 16/ 19 1017.4S
WVE H/P(F/S)=  7/ 8 WND WVE H/P(F/S)=  7/ 6 SWL H/P/D(F/S/D)=  5/250/ 8

ATLANTIC S 41049 2150            85 87   80/  4/  6 1020.6F
WVE H/P(F/S)=  4/10 SWL H/P/D(F/S/D)=  3/100/10

E BAHAMAS  41046 2150            84 85  120/ 10/ 12 1018.5R
WVE H/P(F/S)=  5/ 7 WND WVE H/P(F/S)=  2/ 4 SWL H/P/D(F/S/D)=  3/130/ 7

NE BAHAMAS 41047 2150            84 85  200/ 10/ 12 1018.4R
WVE H/P(F/S)=  4/ 9 WND WVE H/P(F/S)=  2/ 4 SWL H/P/D(F/S/D)=  3/ 70/ 9

120E CANVRL41010 2120            83 84  160/ 14/ 16 1015.5F

END



USA.gov is the U.S. government's official web portal to all federal, state and local government web resources and services.